OK1ALX-6 Weather Reports


time (UTC)temp
C
wind
direction
speed
KPH
gust
KPH
rain 1hr
cm
rain 24hr
cm
rain mn
cm
humidity
%
barometer
mb
20260507185003 13 308 6.4 14.5 0.00 0.00 0.00 70 1019.1
20260507184003 13 319 6.4 12.9 0.00 0.00 0.00 70 1018.9
20260507183003 13 312 6.4 14.5 0.00 0.00 0.00 70 1019.1
20260507182003 14 313 8.0 17.7 0.00 0.00 0.00 69 1018.8
20260507181003 14 307 8.0 20.9 0.00 0.00 0.00 69 1018.4
20260507180003 15 325 8.0 16.1 0.00 0.00 0.00 68 1018.2
20260507175003 15 333 8.0 16.1 0.00 0.00 0.00 67 1018.2
20260507174003 15 331 9.7 17.7 0.00 0.00 0.00 67 1018.0
20260507173003 16 307 11.3 22.5 0.00 0.00 0.00 63 1017.9
20260507172003 16 311 11.3 22.5 0.00 0.00 0.00 59 1017.5
20260507171003 17 312 11.3 25.7 0.00 0.00 0.00 57 1017.3
20260507170003 17 312 11.3 22.5 0.00 0.03 0.00 56 1017.2
20260507165003 17 307 11.3 20.9 0.00 0.03 0.00 56 1017.3
20260507164003 17 289 11.3 20.9 0.00 0.03 0.00 53 1017.0
20260507163003 17 302 11.3 20.9 0.00 0.03 0.00 53 1016.7
20260507162003 17 297 9.7 16.1 0.00 0.03 0.00 53 1016.8
20260507161003 17 281 4.8 11.3 0.00 0.03 0.00 52 1016.8
20260507160003 17 269 8.0 14.5 0.00 0.03 0.00 52 1016.9
20260507155003 18 283 9.7 17.7 0.00 0.03 0.00 51 1016.7
20260507154003 17 298 11.3 24.1 0.00 0.03 0.00 50 1016.9
20260507153003 17 300 9.7 16.1 0.00 0.03 0.00 51 1016.8
20260507152003 18 295 8.0 17.7 0.00 0.03 0.00 49 1016.7
20260507151011 18 295 9.7 17.7 0.00 0.03 0.00 50 1016.7
20260507150003 17 281 11.3 17.7 0.00 0.03 0.00 50 1016.4
20260507145003 17 296 11.3 24.1 0.00 0.03 0.00 52 1016.7
20260507144003 17 295 12.9 24.1 0.00 0.03 0.00 51 1016.8
20260507143003 17 313 12.9 22.5 0.00 0.03 0.00 53 1016.7
20260507142003 17 303 14.5 22.5 0.00 0.03 0.00 53 1016.7
20260507141003 17 306 12.9 22.5 0.00 0.08 0.00 54 1016.8
20260507140003 17 284 11.3 20.9 0.00 0.15 0.00 56 1017.0
20260507135003 17 300 12.9 24.1 0.00 0.15 0.00 56 1017.0
20260507134003 17 306 12.9 24.1 0.00 0.15 0.00 58 1016.9
20260507133003 17 303 11.3 20.9 0.00 0.15 0.00 57 1016.8
20260507132003 17 304 11.3 17.7 0.00 0.15 0.00 58 1017.1
20260507131003 17 292 14.5 24.1 0.00 0.15 0.00 57 1016.9
20260507130004 17 292 12.9 20.9 0.00 0.15 0.00 57 1016.9
20260507125003 18 288 11.3 20.9 0.00 0.15 0.00 56 1016.6
20260507124003 16 294 9.7 22.5 0.00 0.15 0.00 57 1016.9
20260507123003 17 297 9.7 17.7 0.00 0.15 0.00 57 1016.5
20260507122004 17 258 8.0 12.9 0.00 0.15 0.00 55 1016.6
20260507121003 17 284 8.0 14.5 0.00 0.15 0.00 56 1016.6
20260507120004 17 298 11.3 22.5 0.00 0.15 0.00 56 1016.4
20260507115003 17 287 8.0 14.5 0.00 0.15 0.00 56 1016.4
20260507114003 17 256 8.0 20.9 0.00 0.15 0.00 57 1016.7
20260507113003 17 276 9.7 16.1 0.00 0.15 0.00 56 1016.3
20260507112003 16 284 9.7 20.9 0.00 0.15 0.00 56 1016.9
20260507111003 17 285 11.3 22.5 0.00 0.15 0.00 56 1016.6
20260507110003 16 244 9.7 16.1 0.00 0.15 0.00 58 1016.7
20260507105003 16 266 9.7 20.9 0.00 0.15 0.00 58 1016.6
20260507103003 16 270 11.3 24.1 0.00 0.15 0.00 58 1016.7
20260507102003 16 208 9.7 16.1 0.00 0.15 0.00 61 1016.7
20260507101003 16 246 8.0 16.1 0.00 0.15 0.00 61 1016.5
20260507100003 16 275 8.0 14.5 0.00 0.15 0.00 63 1016.5
20260507095003 15 248 9.7 17.7 0.00 0.15 0.00 65 1016.5
20260507094003 15 263 9.7 16.1 0.00 0.15 0.00 65 1016.5
20260507093003 15 244 8.0 16.1 0.00 0.15 0.00 66 1016.6
20260507092003 15 250 11.3 17.7 0.00 0.15 0.00 65 1016.5
20260507091003 15 247 11.3 20.9 0.00 0.15 0.00 69 1016.4
20260507090004 15 267 9.7 17.7 0.00 0.15 0.00 68 1016.2
20260507085003 15 241 9.7 16.1 0.00 0.15 0.00 68 1016.0
20260507084003 15 273 9.7 16.1 0.00 0.15 0.00 67 1016.0
20260507083003 16 254 11.3 22.5 0.00 0.15 0.00 66 1016.0
20260507082003 15 279 8.0 24.1 0.00 0.15 0.00 68 1015.7
20260507081003 15 279 12.9 24.1 0.00 0.15 0.00 69 1016.0
20260507080003 15 225 12.9 20.9 0.00 0.15 0.00 68 1015.8
20260507075003 15 258 14.5 22.5 0.00 0.15 0.00 69 1016.0
20260507074003 14 244 9.7 16.1 0.00 0.15 0.00 70 1015.9
20260507073004 14 269 9.7 17.7 0.00 0.15 0.00 71 1015.9
20260507072003 14 239 9.7 20.9 0.00 0.15 0.00 73 1015.7
20260507071003 14 250 11.3 22.5 0.00 0.15 0.00 72 1015.7
20260507070006 14 256 9.7 22.5 0.00 0.15 0.00 74 1015.8
20260507065003 13 261 9.7 20.9 0.00 0.15 0.00 76 1015.9
20260507064003 13 251 6.4 12.9 0.00 0.15 0.00 78 1015.9
20260507063003 13 260 8.0 12.9 0.00 0.15 0.00 77 1015.8
20260507062003 13 190 1.6 9.7 0.00 0.15 0.00 78 1015.7
20260507061003 13 219 1.6 4.8 0.00 0.15 0.00 79 1015.7
20260507060003 13 228 3.2 6.4 0.00 0.15 0.00 80 1015.5
20260507055003 12 252 3.2 6.4 0.00 0.15 0.00 81 1015.4
20260507054003 12 175 1.6 4.8 0.00 0.15 0.00 82 1015.2
20260507053003 12 252 1.6 6.4 0.00 0.15 0.00 83 1015.2
20260507052003 12 228 3.2 11.3 0.00 0.15 0.00 84 1015.3
20260507051003 12 217 1.6 4.8 0.00 0.15 0.00 86 1014.9
20260507050003 11 180 1.6 4.8 0.00 0.15 0.00 87 1015.0
20260507045003 11 196 1.6 4.8 0.00 0.15 0.00 87 1014.9
20260507044003 11 218 1.6 4.8 0.00 0.15 0.00 88 1014.8
20260507043003 11 219 1.6 6.4 0.00 0.15 0.00 87 1014.8
20260507042003 11 208 1.6 6.4 0.00 0.15 0.00 87 1014.6
20260507041006 11 161 3.2 6.4 0.00 0.15 0.00 88 1014.6
20260507040003 11 216 1.6 3.2 0.00 0.15 0.00 89 1014.2
20260507035011 11 220 1.6 3.2 0.00 0.15 0.00 88 1014.2
20260507034003 12 223 0.0 3.2 0.00 0.15 0.00 88 1014.4
20260507033003 12 238 3.2 4.8 0.00 0.15 0.00 87 1014.1
20260507032003 12 263 4.8 14.5 0.00 0.15 0.00 87 1014.1
20260507031003 12 229 8.0 14.5 0.00 0.15 0.00 86 1013.8
20260507030003 12 232 6.4 12.9 0.00 0.15 0.00 86 1013.7
20260507025003 12 208 6.4 12.9 0.00 0.15 0.00 85 1013.3
20260507024003 12 194 3.2 11.3 0.00 0.15 0.00 85 1013.5
20260507023003 12 186 1.6 9.7 0.00 0.15 0.00 85 1013.5
20260507022003 12 195 3.2 6.4 0.00 0.15 0.00 85 1013.4
20260507021003 11 196 1.6 6.4 0.00 0.15 0.00 87 1013.7
20260507020003 11 147 1.6 4.8 0.00 0.15 0.00 86 1013.6
20260507015003 12 150 1.6 3.2 0.00 0.15 0.00 85 1013.2
20260507014003 12 179 1.6 4.8 0.00 0.15 0.00 86 1013.5
20260507013003 11 188 3.2 9.7 0.00 0.15 0.00 88 1013.5
20260507012003 11 198 3.2 6.4 0.00 0.15 0.00 88 1013.5
20260507011003 11 205 3.2 9.7 0.00 0.15 0.00 88 1013.1
20260507010003 11 199 3.2 9.7 0.00 0.15 0.00 87 1013.0
20260507005003 11 192 3.2 4.8 0.00 0.15 0.00 88 1013.0
20260507004003 12 203 3.2 9.7 0.00 0.15 0.00 88 1012.8
20260507003003 12 217 3.2 9.7 0.00 0.15 0.00 88 1012.9
20260507002003 12 221 3.2 9.7 0.00 0.15 0.00 89 1012.9
20260507001003 12 226 3.2 4.8 0.00 0.15 0.00 89 1012.6
20260507000003 12 228 3.2 6.4 0.00 0.15 0.00 89 1012.7
20260506235003 12 170 3.2 4.8 0.00 0.15 0.00 89 1012.6
20260506234003 12 236 3.2 4.8 0.00 0.15 0.00 89 1012.4
20260506233003 12 259 1.6 4.8 0.00 0.15 0.00 89 1012.4
20260506232003 12 285 3.2 6.4 0.00 0.15 0.00 89 1012.2
20260506231003 12 289 8.0 14.5 0.00 0.15 0.00 88 1012.1
20260506230003 12 291 6.4 16.1 0.00 0.15 0.00 87 1012.0
20260506225003 12 52 6.4 14.5 0.00 0.15 0.00 87 1011.2
20260506224003 12 33 4.8 11.3 0.00 0.15 0.00 87 1010.9
20260506223003 12 319 4.8 12.9 0.00 0.15 0.00 86 1011.4
20260506222003 13 335 6.4 12.9 0.00 0.15 0.00 83 1011.9
20260506221003 13 334 8.0 17.7 0.00 0.15 0.00 81 1012.0
20260506220011 13 305 11.3 27.4 0.00 0.15 0.00 81 1012.0
20260506215004 13 304 12.9 22.5 0.00 0.15 0.15 81 1012.1
20260506214003 13 300 9.7 17.7 0.00 0.15 0.15 82 1012.1
20260506213003 13 292 12.9 25.7 0.00 0.15 0.15 84 1012.2
20260506212003 13 287 11.3 25.7 0.00 0.15 0.15 88 1012.6
20260506211003 12 311 6.4 14.5 0.00 0.15 0.15 87 1011.5
20260506210004 12 319 4.8 11.3 0.00 0.15 0.15 87 1010.9
20260506205003 13 318 3.2 4.8 0.00 0.15 0.15 85 1010.7
20260506204003 13 331 3.2 6.4 0.00 0.15 0.15 83 1010.4
20260506203003 13 69 0.0 3.2 0.00 0.15 0.15 83 1010.5
20260506202003 13 86 0.0 4.8 0.00 0.15 0.15 82 1010.0
20260506201003 13 78 0.0 3.2 0.00 0.15 0.15 82 1010.0
20260506200003 13 79 3.2 6.4 0.00 0.15 0.15 82 1010.0
20260506195003 13 82 1.6 3.2 0.00 0.15 0.15 84 1010.1
20260506194003 13 136 0.0 3.2 0.00 0.15 0.15 83 1010.0
20260506193003 13 114 1.6 3.2 0.00 0.15 0.15 83 1010.0
20260506192003 13 90 0.0 1.6 0.00 0.15 0.15 83 1009.9
20260506191003 13 83 0.0 3.2 0.00 0.15 0.15 83 1009.8
20260506190003 13 81 1.6 4.8 0.00 0.15 0.15 83 1010.0